Location: Ferintosh
(52.7647°N, 112.9692°W)
Time: 18:39:07
(UTC+00:00)

Tiangong - Pass Details

Date: 22 April 2024
Orbit: 372 x 376 km, 41.5° (Epoch: 19 May)

Event Time Altitude Azimuth Distance (km) Brightness Sun altitude
Rises 03:26:44 0° 232° (SW) 2,258 2.1 -6.7°
Reaches altitude 10° 03:30:05 10° 194° (SSW) 1,398 0.5 -7.2°
Maximum altitude 03:31:00 11° 177° (S) 1,339 0.3 -7.3°
Drops below altitude 10° 03:31:56 10° 160° (SSE) 1,394 0.2 -7.4°
Enters shadow 03:32:42 - 147° (SSE) 1,518 0.3 -7.5°
